Terminal Aerodrome Forecast
Issued by NWS

Home | Current Version | Previous Version | Text Only | Print | Product List | Glossary On
Versions: 1 2 3 4 5 6 7 8 9 10 11 12 13 14 15 16 17 18 19 20 21 22 23 24 25 26 27 28 29 30 31 32 33 34 35 36 37 38 39 40 41 42 43 44 45 46 47 48 49 50
000
FTUS45 KVEF 261400 AAA
TAFLAS
TAF AMD
KLAS 261438Z 2615/2712 21007KT P6SM BKN250
     FM261700 VRB05KT P6SM FEW150 OVC200
     FM270000 21005KT P6SM BKN080 OVC150
     FM270600 21005KT 5SM -RA BKN050 OVC080
     FM270900 21005KT 5SM -RA SCT020 BKN030=

USA.gov is the U.S. government's official web portal to all federal, state and local government web resources and services.